| time (UTC) | temp F | wind direction | speed knots | gust knots | rain 1hr in | rain 24hr in | rain mn in | humidity % | barometer mb |
| 20260906080548 | 74 | 6 | 3.5 | 7.8 | 0.00 | 0.00 | 0.00 | 89 | 1014.1 |
| 20260906075529 | 75 | 13 | 2.6 | 7.0 | 0.00 | 0.00 | 0.00 | 89 | 1014.1 |
| 20260906074546 | 74 | 341 | 2.6 | 7.0 | 0.00 | 0.00 | 0.00 | 89 | 1014.1 |
| 20260906073557 | 75 | 9 | 2.6 | 7.0 | 0.00 | 0.00 | 0.00 | 89 | 1014.1 |
| 20260906072559 | 74 | 356 | 2.6 | 7.0 | 0.00 | 0.00 | 0.00 | 89 | 1014.1 |
| 20260906071609 | 74 | 1 | 1.7 | 4.3 | 0.00 | 0.00 | 0.00 | 90 | 1014.1 |
| 20260906070621 | 74 | 27 | 1.7 | 5.2 | 0.00 | 0.00 | 0.00 | 89 | 1014.1 |
| 20260906065635 | 75 | 16 | 2.6 | 5.2 | 0.00 | 0.00 | 0.00 | 89 | 1014.0 |
| 20260906064648 | 74 | 346 | 1.7 | 5.2 | 0.00 | 0.00 | 0.00 | 89 | 1014.1 |
| 20260906063659 | 75 | 339 | 1.7 | 5.2 | 0.00 | 0.00 | 0.00 | 88 | 1014.0 |
| 20260906062649 | 74 | 7 | 0.9 | 3.5 | 0.00 | 0.00 | 0.00 | 90 | 1014.2 |
| 20260906061702 | 74 | 335 | 0.0 | 4.3 | 0.00 | 0.00 | 0.00 | 89 | 1014.2 |
| 20260906060640 | 75 | 359 | 0.9 | 4.3 | 0.00 | 0.00 | 0.00 | 87 | 1014.3 |
| 20260906055634 | 75 | 351 | 0.9 | 5.2 | 0.00 | 0.00 | 0.00 | 88 | 1014.3 |
| 20260906054611 | 76 | 357 | 1.7 | 5.2 | 0.00 | 0.00 | 0.00 | 86 | 1014.2 |
| 20260906053547 | 75 | 17 | 1.7 | 7.0 | 0.00 | 0.00 | 0.00 | 87 | 1014.1 |
| 20260906052612 | 76 | 354 | 2.6 | 7.0 | 0.00 | 0.00 | 0.00 | 85 | 1014.1 |
| 20260906050432 | 76 | 339 | 0.0 | 3.5 | 0.00 | 0.00 | 0.00 | 84 | 1014.0 |
| 20260906045417 | 78 | 5 | 0.9 | 4.3 | 0.00 | 0.00 | 0.00 | 82 | 1013.9 |
| 20260906044402 | 77 | 24 | 1.7 | 4.3 | 0.00 | 0.00 | 0.00 | 82 | 1013.8 |
| 20260906043350 | 78 | 18 | 0.9 | 4.3 | 0.00 | 0.00 | 0.00 | 80 | 1013.7 |
| 20260906041140 | 78 | 18 | 1.7 | 5.2 | 0.00 | 0.00 | 0.00 | 80 | 1013.4 |
| 20260906040151 | 78 | 359 | 2.6 | 5.2 | 0.00 | 0.00 | 0.00 | 79 | 1013.3 |
| 20260906035131 | 78 | 356 | 2.6 | 4.3 | 0.00 | 0.00 | 0.00 | 78 | 1013.3 |
| 20260906034142 | 79 | 30 | 2.6 | 5.2 | 0.00 | 0.00 | 0.00 | 77 | 1013.3 |
| 20260906033131 | 79 | 37 | 3.5 | 6.1 | 0.00 | 0.00 | 0.00 | 76 | 1013.4 |
| 20260906032113 | 80 | 35 | 2.6 | 6.1 | 0.00 | 0.00 | 0.00 | 75 | 1013.3 |
| 20260906031106 | 80 | 26 | 2.6 | 7.0 | 0.00 | 0.00 | 0.00 | 74 | 1013.4 |
| 20260906030051 | 80 | 23 | 2.6 | 7.0 | 0.00 | 0.00 | 0.00 | 72 | 1013.4 |
| 20260906025017 | 80 | 51 | 3.5 | 7.0 | 0.00 | 0.00 | 0.00 | 72 | 1013.2 |
| 20260906024022 | 81 | 16 | 3.5 | 7.0 | 0.00 | 0.00 | 0.00 | 72 | 1013.2 |
| 20260906023007 | 81 | 359 | 3.5 | 7.8 | 0.00 | 0.00 | 0.00 | 72 | 1013.2 |
| 20260906021950 | 82 | 82 | 3.5 | 7.8 | 0.00 | 0.00 | 0.00 | 72 | 1013.2 |
| 20260906020923 | 83 | 147 | 1.7 | 8.7 | 0.00 | 0.00 | 0.00 | 71 | 1013.1 |
| 20260906013616 | 84 | 8 | 3.5 | 7.8 | 0.00 | 0.00 | 0.00 | 70 | 1012.5 |
| 20260906012630 | 85 | 43 | 4.3 | 11.3 | 0.00 | 0.00 | 0.00 | 71 | 1012.5 |
| 20260906011621 | 85 | 8 | 4.3 | 11.3 | 0.00 | 0.00 | 0.00 | 69 | 1012.3 |
| 20260906010606 | 86 | 26 | 0.9 | 5.2 | 0.00 | 0.00 | 0.00 | 73 | 1012.1 |
| 20260906005617 | 86 | 316 | 0.0 | 0.0 | 0.00 | 0.00 | 0.00 | 73 | 1011.9 |
| 20260906004549 | 87 | 316 | 0.0 | 0.0 | 0.00 | 0.00 | 0.00 | 72 | 1011.6 |
| 20260906003534 | 88 | 317 | 0.0 | 0.9 | 0.00 | 0.00 | 0.00 | 71 | 1011.4 |
| 20260906002532 | 89 | 279 | 0.0 | 1.7 | 0.00 | 0.00 | 0.00 | 69 | 1011.4 |
| 20260906001556 | 89 | 13 | 0.0 | 1.7 | 0.00 | 0.00 | 0.00 | 68 | 1011.5 |
| 20260906000607 | 89 | 309 | 0.0 | 1.7 | 0.00 | 0.00 | 0.00 | 69 | 1011.5 |
| 20260905235613 | 90 | 328 | 0.0 | 0.9 | 0.00 | 0.00 | 0.00 | 68 | 1011.5 |
| 20260905234557 | 92 | 318 | 0.0 | 0.9 | 0.00 | 0.00 | 0.00 | 64 | 1011.6 |
| 20260905233553 | 93 | 297 | 0.0 | 0.9 | 0.00 | 0.00 | 0.00 | 63 | 1011.6 |
| 20260905232519 | 94 | 347 | 0.0 | 0.9 | 0.00 | 0.00 | 0.00 | 62 | 1011.6 |
| 20260905230358 | 93 | 359 | 0.0 | 0.9 | 0.00 | 0.00 | 0.00 | 61 | 1012.0 |
| 20260905225351 | 93 | 325 | 0.0 | 0.9 | 0.00 | 0.00 | 0.00 | 61 | 1011.6 |
| 20260905224354 | 93 | 323 | 0.0 | 0.9 | 0.00 | 0.00 | 0.00 | 58 | 1011.5 |
| 20260905223351 | 93 | 1 | 0.0 | 0.9 | 0.00 | 0.00 | 0.00 | 58 | 1011.3 |
| 20260905222337 | 93 | 322 | 0.0 | 0.9 | 0.00 | 0.00 | 0.00 | 57 | 1011.2 |
| 20260905221345 | 93 | 345 | 0.0 | 0.9 | 0.00 | 0.00 | 0.00 | 57 | 1011.1 |
| 20260905220322 | 94 | 305 | 0.0 | 1.7 | 0.00 | 0.00 | 0.00 | 56 | 1011.4 |
| 20260905214151 | 94 | 302 | 0.0 | 7.0 | 0.00 | 0.00 | 0.00 | 56 | 1011.5 |
| 20260905213214 | 95 | 330 | 1.7 | 7.0 | 0.00 | 0.00 | 0.00 | 54 | 1011.5 |
| 20260905212218 | 96 | 302 | 0.9 | 3.5 | 0.00 | 0.00 | 0.00 | 52 | 1011.5 |
| 20260905211147 | 97 | 37 | 0.9 | 0.9 | 0.00 | 0.00 | 0.00 | 50 | 1011.4 |
| 20260905210129 | 97 | 294 | 0.0 | 3.5 | 0.00 | 0.00 | 0.00 | 50 | 1011.7 |
| 20260905205102 | 97 | 326 | 0.9 | 3.5 | 0.00 | 0.00 | 0.00 | 50 | 1011.8 |
| 20260905202936 | 97 | 254 | 0.9 | 2.6 | 0.00 | 0.00 | 0.00 | 51 | 1012.0 |
| 20260905201921 | 97 | 295 | 1.7 | 3.5 | 0.00 | 0.00 | 0.00 | 50 | 1012.2 |
| 20260905200922 | 97 | 290 | 0.9 | 7.8 | 0.00 | 0.00 | 0.00 | 48 | 1012.3 |
| 20260905195927 | 96 | 358 | 2.6 | 7.8 | 0.00 | 0.00 | 0.00 | 49 | 1012.4 |
| 20260905194930 | 98 | 239 | 0.9 | 3.5 | 0.00 | 0.00 | 0.00 | 47 | 1012.5 |
| 20260905192810 | 95 | 271 | 1.7 | 5.2 | 0.00 | 0.00 | 0.00 | 49 | 1012.6 |
| 20260905191833 | 95 | 241 | 0.9 | 5.2 | 0.00 | 0.00 | 0.00 | 49 | 1012.7 |
| 20260905190824 | 95 | 232 | 2.6 | 7.8 | 0.00 | 0.00 | 0.00 | 48 | 1012.8 |
| 20260905185756 | 94 | 272 | 2.6 | 7.8 | 0.00 | 0.00 | 0.00 | 50 | 1013.0 |
| 20260905184818 | 93 | 257 | 3.5 | 7.8 | 0.00 | 0.00 | 0.00 | 50 | 1013.1 |
| 20260905183819 | 93 | 264 | 2.6 | 6.1 | 0.00 | 0.00 | 0.00 | 50 | 1013.3 |
| 20260905182824 | 93 | 283 | 2.6 | 6.1 | 0.00 | 0.00 | 0.00 | 50 | 1013.4 |
| 20260905181827 | 93 | 240 | 2.6 | 7.8 | 0.00 | 0.00 | 0.00 | 48 | 1013.5 |
| 20260905180816 | 93 | 225 | 3.5 | 7.8 | 0.00 | 0.00 | 0.00 | 49 | 1013.5 |
| 20260905175836 | 93 | 146 | 3.5 | 7.0 | 0.00 | 0.00 | 0.00 | 47 | 1013.5 |
| 20260905174810 | 92 | 264 | 2.6 | 7.8 | 0.00 | 0.00 | 0.00 | 48 | 1013.8 |
| 20260905173821 | 92 | 148 | 1.7 | 7.8 | 0.00 | 0.00 | 0.00 | 48 | 1013.9 |
| 20260905172836 | 92 | 143 | 2.6 | 6.1 | 0.00 | 0.00 | 0.00 | 49 | 1013.9 |
| 20260905171840 | 91 | 217 | 2.6 | 7.0 | 0.00 | 0.00 | 0.00 | 50 | 1014.2 |
| 20260905170847 | 90 | 191 | 3.5 | 7.8 | 0.00 | 0.00 | 0.00 | 50 | 1014.3 |
| 20260905165852 | 88 | 241 | 3.5 | 10.4 | 0.00 | 0.00 | 0.00 | 53 | 1014.5 |
| 20260905164851 | 88 | 250 | 3.5 | 10.4 | 0.00 | 0.00 | 0.00 | 54 | 1014.7 |
| 20260905161603 | 87 | 150 | 3.5 | 11.3 | 0.00 | 0.00 | 0.00 | 54 | 1014.6 |
| 20260905160542 | 86 | 141 | 4.3 | 11.3 | 0.00 | 0.00 | 0.00 | 56 | 1014.7 |
| 20260905155517 | 84 | 241 | 4.3 | 8.7 | 0.00 | 0.00 | 0.00 | 57 | 1014.9 |
| 20260905154455 | 84 | 333 | 2.6 | 7.8 | 0.00 | 0.00 | 0.00 | 57 | 1015.0 |
| 20260905153514 | 84 | 206 | 3.5 | 7.8 | 0.00 | 0.00 | 0.00 | 57 | 1014.8 |
| 20260905152523 | 85 | 226 | 3.5 | 7.8 | 0.00 | 0.00 | 0.00 | 55 | 1014.9 |
| 20260905151520 | 86 | 142 | 2.6 | 8.7 | 0.00 | 0.00 | 0.00 | 53 | 1015.0 |
| 20260905150532 | 84 | 219 | 3.5 | 8.7 | 0.00 | 0.00 | 0.00 | 55 | 1015.1 |
| 20260905144347 | 83 | 212 | 4.3 | 9.6 | 0.00 | 0.00 | 0.00 | 57 | 1015.0 |
| 20260905143326 | 83 | 127 | 4.3 | 10.4 | 0.00 | 0.00 | 0.00 | 58 | 1015.1 |
| 20260905142346 | 82 | 237 | 4.3 | 10.4 | 0.00 | 0.00 | 0.00 | 59 | 1015.5 |
| 20260905140216 | 81 | 220 | 3.5 | 7.8 | 0.00 | 0.00 | 0.00 | 62 | 1015.6 |
| 20260905135155 | 81 | 107 | 3.5 | 11.3 | 0.00 | 0.00 | 0.00 | 62 | 1015.6 |
| 20260905131908 | 79 | 103 | 3.5 | 9.6 | 0.00 | 0.00 | 0.00 | 67 | 1015.8 |
| 20260905130930 | 78 | 125 | 4.3 | 8.7 | 0.00 | 0.00 | 0.00 | 68 | 1015.9 |
| 20260905125908 | 78 | 308 | 5.2 | 13.0 | 0.00 | 0.00 | 0.00 | 68 | 1016.1 |
| 20260905124904 | 77 | 135 | 5.2 | 13.0 | 0.00 | 0.00 | 0.00 | 70 | 1015.7 |
| 20260905123920 | 77 | 127 | 3.5 | 7.8 | 0.00 | 0.00 | 0.00 | 71 | 1016.0 |
| 20260905122851 | 77 | 117 | 3.5 | 8.7 | 0.00 | 0.00 | 0.00 | 73 | 1015.8 |
| 20260905121848 | 76 | 77 | 3.5 | 9.6 | 0.00 | 0.00 | 0.00 | 75 | 1015.9 |
| 20260905120852 | 76 | 111 | 4.3 | 10.4 | 0.00 | 0.00 | 0.00 | 77 | 1016.1 |
| 20260905115829 | 76 | 102 | 4.3 | 11.3 | 0.00 | 0.00 | 0.00 | 76 | 1015.9 |
| 20260905114804 | 76 | 126 | 4.3 | 12.2 | 0.00 | 0.00 | 0.00 | 76 | 1015.9 |
| 20260905113756 | 76 | 142 | 6.1 | 17.4 | 0.00 | 0.00 | 0.00 | 78 | 1015.8 |
| 20260905112734 | 76 | 89 | 7.0 | 17.4 | 0.00 | 0.00 | 0.00 | 81 | 1015.6 |
| 20260905110702 | 77 | 70 | 0.0 | 2.6 | 0.00 | 0.00 | 0.00 | 91 | 1014.3 |
| 20260905105719 | 77 | 345 | 0.0 | 0.0 | 0.00 | 0.00 | 0.00 | 91 | 1013.9 |
| 20260905103501 | 77 | 345 | 0.0 | 0.0 | 0.00 | 0.00 | 0.00 | 90 | 1013.6 |
| 20260905101400 | 78 | 345 | 0.0 | 0.0 | 0.00 | 0.00 | 0.00 | 90 | 1013.7 |
| 20260905100422 | 78 | 345 | 0.0 | 0.0 | 0.00 | 0.00 | 0.00 | 90 | 1013.8 |
| 20260905094325 | 78 | 75 | 0.0 | 0.0 | 0.00 | 0.00 | 0.00 | 90 | 1013.6 |
| 20260905093341 | 78 | 75 | 0.0 | 0.0 | 0.00 | 0.00 | 0.00 | 89 | 1013.6 |
| 20260905090118 | 78 | 75 | 0.0 | 0.0 | 0.00 | 0.00 | 0.00 | 89 | 1013.5 |
| 20260905085110 | 78 | 75 | 0.0 | 0.0 | 0.00 | 0.00 | 0.00 | 88 | 1013.4 |
| 20260905084131 | 79 | 75 | 0.9 | 2.6 | 0.00 | 0.00 | 0.00 | 88 | 1013.3 |
| 20260905083101 | 79 | 242 | 0.0 | 2.6 | 0.00 | 0.00 | 0.00 | 87 | 1013.3 |
| 20260905082033 | 79 | 146 | 0.0 | 0.9 | 0.00 | 0.00 | 0.00 | 88 | 1013.2 |
| 20260905081053 | 79 | 156 | 0.9 | 2.6 | 0.00 | 0.00 | 0.00 | 88 | 1013.2 |